カタログに戻る

FENGYUN 1C DEB

運用中SSO
NORAD 30281·DEBRIS·🇨🇳 China

打ち上げ May 10, 1999 から Taiyuan Satellite Launch Center

Loading…

次のパス (今後24時間)

TLE

最新Source: Space-Track

元期: Sep 14, 2026, 11:44 UTC

1 30281U 99025YS  26257.48899468  .00000209  00000-0  14070-3 0  9993
2 30281  98.7793 245.5791 0028615 174.6603 342.2762 14.10666634 11095

AllMySatでFENGYUN 1C DEBをリアルタイム追跡

Download on the App Store